Des Moines, IA

11:58 AM CDT on May 26, 2017 (GMT -0500)
Des Moines International

Weather History for KDSM - January, 2013

Change the Weather History Date:

Monday, January 28, 2013

  Actual Average Record
Temperature  
Mean Temperature 42 °F 23 °F  
Max Temperature 49 °F 32 °F 56 °F (1931)
Min Temperature 35 °F 15 °F -20 °F (1885)
Degree Days  
Heating Degree Days 23 42  
Month to date heating degree days 1074 1190  
Since 1 July heating degree days 3225 3657  
Cooling Degree Days 0 0  
Month to date cooling degree days 0 0  
Year to date cooling degree days 0 0  
Moisture  
Dew Point 39 °F    
Average Humidity 95    
Maximum Humidity 100    
Minimum Humidity 89    
Precipitation  
Precipitation 0.36 in 0.03 in 0.82 in (1989)
Month to date precipitation 0.71 0.89  
Year to date precipitation 0.71 0.89  
Snow  
Snow 0.00 in 0.30 in 1.80 in (1918)
Month to date snowfall 1.1 7.6  
Since 1 July snowfall 16.6 19.5  
Snow Depth 0.00 in    
Sea Level Pressure  
Sea Level Pressure 29.77 in    
Wind  
Wind Speed 7 mph (ESE)    
Max Wind Speed 14 mph    
Max Gust Speed 21 mph    
Visibility 1 miles    
Events Fog , Rain , Thunderstorm    
T = Trace of Precipitation, MM = Missing Value Source: NWS Daily Summary

Daily Weather History Graph

Daily Weather History Graph

Search for Another Location

Airport or City:

Trip Planner

Search our weather history database for the weather conditions in past years. The results will help you decide how hot, cold, wet, or windy it might be!

Date:

Astronomy

Jan. 28, 2013 Rise Set
Actual Time 7:29 AM CST 5:25 PM CST
Civil Twilight 7:00 AM CST 5:55 PM CST
Nautical Twilight 6:26 AM CST 6:28 PM CST
Astronomical Twilight 5:54 AM CST 7:01 PM CST
Moon 7:23 PM CST (1/28) 7:54 AM CST (1/28)
Length of Visible Light 10h 55m
Length of Day
9h 56m
Full, 98% of the Moon is Illuminated
Jan 28
Full
Feb 3
Last Quarter
Feb 10
New
Feb 17
First Quarter
Feb 25
Full

Hourly Weather History & Observations

Time (CST) Temp. Windchill Dew Point Humidity Pressure Visibility Wind Dir Wind Speed Gust Speed Precip Events Conditions
12:19 AM 37.9 °F 34.4 °F 37.0 °F 97% 29.78 in 0.5 mi NW 4.6 mph - 0.00 in Fog Light Drizzle
12:47 AM 37.9 °F 33.5 °F 37.0 °F 97% 29.79 in 0.2 mi NW 5.8 mph - 0.00 in Fog Fog
12:54 AM 37.9 °F 34.4 °F 37.0 °F 97% 29.82 in 0.2 mi NW 4.6 mph - 0.00 in Fog Fog
1:52 AM 37.4 °F 32.8 °F 35.6 °F 93% 29.81 in 0.2 mi West 5.8 mph - N/A Fog Fog
1:54 AM 37.0 °F 32.4 °F 36.0 °F 96% 29.83 in 0.2 mi West 5.8 mph - N/A Fog Fog
2:07 AM 37.9 °F 32.1 °F 36.0 °F 93% 29.82 in 0.5 mi West 8.1 mph - N/A Fog Fog
2:17 AM 37.9 °F 31.5 °F 36.0 °F 93% 29.83 in 1.0 mi West 9.2 mph - N/A   Overcast
2:38 AM 37.0 °F 31.0 °F 36.0 °F 96% 29.83 in 0.5 mi WNW 8.1 mph - N/A Fog Fog
2:50 AM 37.4 °F 31.4 °F 35.6 °F 93% 29.83 in 0.5 mi WNW 8.1 mph - N/A Fog Fog
2:54 AM 37.0 °F 31.6 °F 36.0 °F 96% 29.86 in 0.5 mi WNW 6.9 mph - N/A Fog Fog
3:01 AM 37.0 °F 31.0 °F 36.0 °F 96% 29.84 in 0.2 mi WNW 8.1 mph - N/A Fog Fog
3:29 AM 37.0 °F 32.4 °F 36.0 °F 96% 29.84 in 0.5 mi WNW 5.8 mph - N/A Fog Fog
3:54 AM 36.0 °F 31.1 °F 35.1 °F 97% 29.87 in 0.5 mi WNW 5.8 mph - N/A Fog Fog
4:15 AM 37.0 °F 32.4 °F 35.1 °F 93% 29.85 in 0.2 mi NW 5.8 mph - 0.00 in Fog Light Drizzle
4:34 AM 36.0 °F 29.0 °F 35.1 °F 97% 29.86 in 0.2 mi NW 9.2 mph - 0.00 in Fog Light Drizzle
4:54 AM 36.0 °F 32.1 °F 35.1 °F 97% 29.88 in 0.5 mi NNW 4.6 mph - 0.00 in Fog Light Drizzle
5:54 AM 36.0 °F 30.3 °F 35.1 °F 97% 29.90 in 0.5 mi NNW 6.9 mph - 0.00 in Fog Light Drizzle
6:54 AM 36.0 °F - 35.1 °F 97% 29.91 in 0.5 mi Calm Calm - 0.00 in Fog Fog
7:31 AM 35.1 °F 31.0 °F 34.0 °F 96% 29.90 in 0.2 mi South 4.6 mph - N/A Fog Fog
7:54 AM 35.1 °F 31.0 °F 34.0 °F 96% 29.93 in 0.1 mi SSE 4.6 mph - N/A Fog Fog
8:18 AM 35.1 °F 31.0 °F 35.1 °F 100% 29.90 in 0.1 mi SSE 4.6 mph - N/A Fog Fog
8:54 AM 35.1 °F 32.2 °F 34.0 °F 96% 29.93 in 0.1 mi East 3.5 mph - N/A Fog Fog
9:54 AM 36.0 °F 33.3 °F 35.1 °F 97% 29.93 in 0.1 mi East 3.5 mph - N/A Fog Fog
10:54 AM 36.0 °F 31.1 °F 35.1 °F 97% 29.92 in 0.1 mi ESE 5.8 mph - N/A Fog Fog
11:05 AM 36.0 °F 29.0 °F 35.1 °F 97% 29.89 in 0.2 mi ESE 9.2 mph - N/A Fog Fog
11:54 AM 37.0 °F 30.4 °F 36.0 °F 96% 29.91 in 0.2 mi SE 9.2 mph - N/A Fog Fog
12:54 PM 37.9 °F 33.5 °F 37.0 °F 97% 29.86 in 0.2 mi East 5.8 mph - N/A Fog Fog
1:01 PM 37.9 °F 33.5 °F 37.0 °F 97% 29.84 in 0.2 mi East 5.8 mph - N/A Fog Fog
1:22 PM 39.0 °F 33.4 °F 37.0 °F 93% 29.83 in 0.2 mi East 8.1 mph - N/A Fog Fog
1:32 PM 39.0 °F 34.0 °F 37.0 °F 93% 29.83 in 0.2 mi ESE 6.9 mph - N/A Fog Fog
1:42 PM 39.0 °F 33.4 °F 37.0 °F 93% 29.82 in 0.2 mi East 8.1 mph - N/A Fog Fog
1:54 PM 39.0 °F 32.8 °F 37.0 °F 93% 29.83 in 0.2 mi ESE 9.2 mph - N/A Fog Fog
2:54 PM 39.0 °F 33.4 °F 37.9 °F 96% 29.81 in 0.2 mi East 8.1 mph - N/A Fog Fog
3:25 PM 39.0 °F 32.3 °F 37.9 °F 96% 29.78 in 0.5 mi East 10.4 mph - N/A   Overcast
3:54 PM 39.9 °F 34.5 °F 37.9 °F 93% 29.81 in 0.5 mi East 8.1 mph - N/A   Overcast
4:22 PM 39.9 °F 32.9 °F 37.9 °F 93% 29.77 in 0.2 mi ESE 11.5 mph - N/A Fog Fog
4:54 PM 39.9 °F 33.9 °F 37.9 °F 93% 29.77 in 0.1 mi East 9.2 mph - 0.00 in Fog Light Drizzle
5:17 PM 39.9 °F 33.9 °F 37.9 °F 93% 29.74 in 0.1 mi East 9.2 mph - 0.00 in Fog Light Drizzle
5:27 PM 39.9 °F 33.9 °F 39.0 °F 97% 29.74 in 0.1 mi East 9.2 mph - 0.00 in Fog Light Drizzle
5:54 PM 39.9 °F 33.9 °F 39.0 °F 97% 29.75 in 0.1 mi East 9.2 mph - 0.00 in Fog Light Drizzle
6:54 PM 41.0 °F 35.2 °F 39.9 °F 96% 29.73 in 0.2 mi ESE 9.2 mph - 0.00 in Fog Fog
7:54 PM 42.1 °F 36.6 °F 39.9 °F 92% 29.70 in 0.2 mi East 9.2 mph - N/A Fog Fog
8:10 PM 42.1 °F 36.1 °F 41.0 °F 96% 29.67 in 0.2 mi ESE 10.4 mph - 0.00 in Fog Fog
8:35 PM 43.0 °F 39.5 °F 41.0 °F 93% 29.66 in 0.8 mi East 5.8 mph - 0.03 in Rain , Thunderstorm Light Thunderstorms and Rain
8:47 PM 43.0 °F 37.2 °F 42.1 °F 97% 29.64 in 1.5 mi ESE 10.4 mph - 0.13 in Rain , Thunderstorm Light Thunderstorms and Rain
8:52 PM 42.8 °F 37.5 °F 41.0 °F 93% 29.64 in 7.0 mi ESE 9.2 mph - 0.13 in Thunderstorm Thunderstorm
8:54 PM 43.0 °F 37.2 °F 41.0 °F 93% 29.66 in 7.0 mi ESE 10.4 mph - 0.13 in Thunderstorm Thunderstorm
9:31 PM 45.0 °F 39.3 °F 43.0 °F 93% 29.62 in 2.5 mi ESE 11.5 mph 20.7 mph 0.12 in Rain , Thunderstorm Light Thunderstorms and Rain
9:39 PM 45.0 °F - 44.1 °F 97% 29.63 in 5.0 mi Calm Calm - 0.13 in Rain , Thunderstorm Light Thunderstorms and Rain
9:54 PM 45.0 °F 41.8 °F 44.1 °F 97% 29.65 in 2.0 mi Variable 5.8 mph - 0.15 in Rain , Thunderstorm Thunderstorms and Rain
9:58 PM 45.0 °F 40.6 °F 44.1 °F 97% 29.62 in 1.5 mi West 8.1 mph - 0.04 in Rain , Thunderstorm Heavy Thunderstorms and Rain
10:18 PM 46.9 °F - 44.1 °F 90% 29.61 in 3.0 mi SSE 10.4 mph - 0.06 in   Overcast
10:33 PM 46.9 °F - 46.0 °F 97% 29.60 in 1.8 mi SE 5.8 mph - 0.06 in   Overcast
10:38 PM 46.9 °F - 46.0 °F 97% 29.60 in 0.8 mi SE 6.9 mph - 0.06 in   Overcast
10:47 PM 48.0 °F - 46.0 °F 93% 29.60 in 0.5 mi SE 9.2 mph - 0.06 in Rain Light Rain
10:54 PM 48.0 °F - 46.0 °F 93% 29.61 in 0.5 mi ESE 5.8 mph - 0.06 in Fog Fog
11:02 PM 46.9 °F - 46.0 °F 97% 29.59 in 0.5 mi SE 10.4 mph - 0.01 in Rain Light Rain
11:12 PM 48.9 °F - 46.9 °F 93% 29.58 in 0.8 mi Variable 5.8 mph - 0.02 in Rain Light Rain
11:54 PM 46.9 °F - 46.0 °F 97% 29.60 in 0.5 mi SE 6.9 mph - 0.02 in Fog Fog